When you browse on this site, cookies collect data to enhance your experience and personalize the content and advertising you see.
Visit our Privacy Policy to learn more. By continuing to use the site, you agree to this use of cookies and data.

Hourly Weather Maripasoula

Today, 29 September, Tuesday

Time Temperature Precipitation Wind Pressure Humidity
00:00 +25°C° 0 mm 1 mps 746 mmHg 81%
01:00 +24°C° 0 mm 1 mps 746 mmHg 86%
02:00 +23°C° 0 mm 1 mps 745 mmHg 91%
03:00 +22°C° 0 mm 1 mps 745 mmHg 93%
04:00 +20°C° 0 mm 0 mps 746 mmHg 96%
05:00 +19°C° 0 mm 0 mps 746 mmHg 99%
06:00 +23°C° 0 mm 1 mps 746 mmHg 88%
07:00 +26°C° 0 mm 1 mps 747 mmHg 77%
08:00 +28°C° 0 mm 1 mps 748 mmHg 66%
09:00 +31°C° 0 mm 1 mps 747 mmHg 54%
10:00 +34°C° 0 mm 1 mps 747 mmHg 42%
11:00 +37°C° 0 mm 2 mps 747 mmHg 30%
12:00 +38°C° 0 mm 2 mps 746 mmHg 28%
13:00 +39°C° 0 mm 2 mps 745 mmHg 26%
14:00 +39°C° 0 mm 2 mps 744 mmHg 24%
15:00 +36°C° 0 mm 1 mps 744 mmHg 30%
16:00 +34°C° 0 mm 1 mps 744 mmHg 37%
17:00 +30°C° 0 mm 0 mps 744 mmHg 43%
18:00 +31°C° 0 mm 1 mps 745 mmHg 46%
19:00 +30°C° 0 mm 1 mps 745 mmHg 48%
20:00 +29°C° 0 mm 1 mps 746 mmHg 51%
21:00 +28°C° 0 mm 1 mps 746 mmHg 59%
22:00 +27°C° 0 mm 1 mps 746 mmHg 66%
23:00 +25°C° 0 mm 1 mps 746 mmHg 74%

Tomorrow, 30 September, Wednesday

Time Temperature Precipitation Wind Pressure Humidity
00:00 +25°C° 0 mm 1 mps 746 mmHg 80%
01:00 +24°C° 0 mm 1 mps 745 mmHg 85%
02:00 +21°C° 0 mm 0 mps 745 mmHg 91%
03:00 +21°C° 0 mm 0 mps 745 mmHg 93%
04:00 +21°C° 0 mm 0 mps 745 mmHg 96%
05:00 +20°C° 0 mm 0 mps 745 mmHg 98%
06:00 +24°C° 0 mm 1 mps 746 mmHg 90%
07:00 +26°C° 0 mm 1 mps 747 mmHg 82%
08:00 +28°C° 0 mm 1 mps 747 mmHg 74%
09:00 +31°C° 0 mm 1 mps 747 mmHg 61%
10:00 +34°C° 0 mm 1 mps 747 mmHg 48%
11:00 +37°C° 0 mm 1 mps 746 mmHg 36%
12:00 +39°C° 0 mm 1 mps 745 mmHg 32%
13:00 +39°C° 0 mm 2 mps 744 mmHg 29%
14:00 +40°C° 0 mm 2 mps 743 mmHg 26%
15:00 +37°C° 0 mm 1 mps 743 mmHg 31%
16:00 +35°C° 0 mm 1 mps 743 mmHg 37%
17:00 +33°C° 0 mm 1 mps 743 mmHg 43%
18:00 +32°C° 0 mm 1 mps 743 mmHg 48%
19:00 +31°C° 0 mm 1 mps 744 mmHg 53%
20:00 +29°C° 0 mm 1 mps 745 mmHg 58%
21:00 +28°C° 0.4 mm 1 mps 745 mmHg 70%
22:00 +26°C° 0.4 mm 1 mps 745 mmHg 82%
23:00 +25°C° 0.4 mm 1 mps 746 mmHg 95%

Day after tomorrow, 1 October, Thursday

Time Temperature Precipitation Wind Pressure Humidity
00:00 +24°C° 0 mm 1 mps 745 mmHg 96%
01:00 +24°C° 0 mm 1 mps 745 mmHg 97%
02:00 +24°C° 0 mm 1 mps 744 mmHg 99%
03:00 +23°C° 0 mm 1 mps 744 mmHg 99%
04:00 +21°C° 0 mm 0 mps 745 mmHg 99%
05:00 +21°C° 0 mm 0 mps 745 mmHg 99%
06:00 +25°C° 0 mm 1 mps 745 mmHg 91%
07:00 +27°C° 0 mm 1 mps 746 mmHg 83%
08:00 +29°C° 0 mm 1 mps 746 mmHg 75%
09:00 +31°C° 0 mm 2 mps 746 mmHg 62%
10:00 +35°C° 0 mm 2 mps 746 mmHg 50%
11:00 +37°C° 0 mm 2 mps 745 mmHg 38%
12:00 +38°C° 0 mm 2 mps 744 mmHg 35%
13:00 +39°C° 0 mm 2 mps 743 mmHg 32%
14:00 +40°C° 0 mm 2 mps 742 mmHg 29%
15:00 +38°C° 0 mm 2 mps 742 mmHg 35%
16:00 +35°C° 0 mm 1 mps 742 mmHg 41%
17:00 +33°C° 0 mm 1 mps 742 mmHg 48%
18:00 +31°C° 0.2 mm 1 mps 743 mmHg 57%
19:00 +29°C° 0.2 mm 1 mps 743 mmHg 67%
20:00 +27°C° 0.2 mm 2 mps 744 mmHg 77%
21:00 +26°C° 0.1 mm 1 mps 744 mmHg 81%
22:00 +25°C° 0.1 mm 1 mps 745 mmHg 86%
23:00 +25°C° 0.1 mm 1 mps 745 mmHg 91%

2 October, Friday

Time Temperature Precipitation Wind Pressure Humidity
00:00 +25°C° 0 mm 1 mps 745 mmHg 93%
01:00 +25°C° 0 mm 1 mps 744 mmHg 95%
02:00 +24°C° 0 mm 1 mps 744 mmHg 97%
03:00 +24°C° 0 mm 1 mps 744 mmHg 97%
04:00 +22°C° 0 mm 0 mps 744 mmHg 98%
05:00 +22°C° 0 mm 0 mps 745 mmHg 98%
06:00 +25°C° 0 mm 1 mps 745 mmHg 91%
07:00 +27°C° 0 mm 1 mps 746 mmHg 84%
08:00 +28°C° 0 mm 1 mps 746 mmHg 76%
09:00 +31°C° 0 mm 1 mps 746 mmHg 63%
10:00 +34°C° 0 mm 1 mps 746 mmHg 50%
11:00 +37°C° 0 mm 1 mps 745 mmHg 37%
12:00 +39°C° 0 mm 1 mps 744 mmHg 33%
13:00 +39°C° 0 mm 1 mps 743 mmHg 30%
14:00 +40°C° 0 mm 1 mps 742 mmHg 27%
15:00 +37°C° 0 mm 1 mps 742 mmHg 34%
16:00 +34°C° 0 mm 1 mps 742 mmHg 41%
17:00 +30°C° 0 mm 0 mps 742 mmHg 48%
18:00 +31°C° 0 mm 1 mps 743 mmHg 51%
19:00 +31°C° 0 mm 1 mps 744 mmHg 54%
20:00 +30°C° 0 mm 2 mps 744 mmHg 56%
21:00 +29°C° 0 mm 1 mps 745 mmHg 64%
22:00 +27°C° 0 mm 1 mps 745 mmHg 71%
23:00 +26°C° 0 mm 1 mps 745 mmHg 79%

3 October, Saturday

Time Temperature Precipitation Wind Pressure Humidity
00:00 +26°C° 0.1 mm 1 mps 745 mmHg 83%
01:00 +25°C° 0.1 mm 1 mps 745 mmHg 88%
02:00 +25°C° 0.1 mm 1 mps 745 mmHg 93%
03:00 +24°C° 0 mm 1 mps 745 mmHg 95%
04:00 +24°C° 0 mm 1 mps 745 mmHg 97%
05:00 +22°C° 0 mm 0 mps 745 mmHg 99%
06:00 +26°C° 0 mm 1 mps 746 mmHg 90%
07:00 +27°C° 0 mm 1 mps 746 mmHg 81%
08:00 +29°C° 0 mm 1 mps 747 mmHg 71%
09:00 +32°C° 0 mm 2 mps 747 mmHg 60%
10:00 +35°C° 0 mm 2 mps 746 mmHg 48%
11:00 +38°C° 0 mm 2 mps 746 mmHg 36%
12:00 +39°C° 0 mm 2 mps 745 mmHg 33%
13:00 +39°C° 0 mm 2 mps 744 mmHg 29%
14:00 +40°C° 0 mm 2 mps 743 mmHg 26%
15:00 +37°C° 0 mm 1 mps 743 mmHg 32%
16:00 +35°C° 0 mm 1 mps 743 mmHg 37%
17:00 +33°C° 0 mm 1 mps 743 mmHg 43%
18:00 +32°C° 0 mm 1 mps 743 mmHg 45%
19:00 +31°C° 0 mm 1 mps 744 mmHg 48%
20:00 +30°C° 0 mm 1 mps 745 mmHg 51%
21:00 +29°C° 0 mm 1 mps 745 mmHg 58%
22:00 +27°C° 0 mm 1 mps 745 mmHg 65%
23:00 +26°C° 0 mm 1 mps 745 mmHg 72%

4 October, Sunday

Time Temperature Precipitation Wind Pressure Humidity
00:00 +26°C° 0 mm 1 mps 745 mmHg 78%
01:00 +25°C° 0 mm 1 mps 745 mmHg 83%
02:00 +24°C° 0 mm 1 mps 744 mmHg 89%
03:00 +24°C° 0 mm 1 mps 745 mmHg 92%
04:00 +24°C° 0 mm 1 mps 745 mmHg 94%
05:00 +21°C° 0 mm 0 mps 745 mmHg 97%
06:00 +25°C° 0 mm 1 mps 745 mmHg 87%
07:00 +28°C° 0 mm 1 mps 746 mmHg 78%
08:00 +30°C° 0 mm 2 mps 747 mmHg 68%
09:00 +32°C° 0 mm 2 mps 747 mmHg 57%
10:00 +36°C° 0 mm 2 mps 746 mmHg 47%
11:00 +38°C° 0 mm 2 mps 746 mmHg 37%
12:00 +39°C° 0 mm 2 mps 745 mmHg 34%
13:00 +40°C° 0 mm 2 mps 744 mmHg 31%
14:00 +40°C° 0 mm 2 mps 743 mmHg 28%
15:00 +38°C° 0.1 mm 2 mps 743 mmHg 38%
16:00 +35°C° 0.1 mm 2 mps 743 mmHg 47%
17:00 +31°C° 0.1 mm 2 mps 743 mmHg 57%
18:00 +29°C° 1.4 mm 2 mps 744 mmHg 70%
19:00 +27°C° 1.4 mm 1 mps 745 mmHg 82%
20:00 +24°C° 1.4 mm 1 mps 746 mmHg 95%
21:00 +24°C° 0 mm 1 mps 746 mmHg 96%
22:00 +24°C° 0 mm 1 mps 746 mmHg 96%
23:00 +24°C° 0 mm 1 mps 746 mmHg 97%
Show more